Flag for Germany Weather past 2 weeks in Aalen, Baden-Württemberg, Germany

Now
27 °F

Low clouds.


Feels Like: 19 °F
Forecast: 31 / 34 °F
Wind: 8 mph from North

Location: Stoetten

Current Time: Jan 25, 2015 at 5:20:04 AM

Latest Report: Jan 25, 2015 at 4:00 AM


Visibility: 3 mi

Pressure: 30.33 "Hg

Humidity: 98%

Dew point: 27 °F

Location of AalenLocation

Historic Weather in Aalen — Graph

°F

Aalen temperature yesterday

Maximum temperature yesterday: 28 °F (at 2:00 PM)
Minimum temperature yesterday: 26 °F (at 9:00 PM)
Average temperature yesterday: 27 °F

Past Weeks' High & Low Weather Summary

 TemperatureHumidityPressure
High52 °F (Jan 10, 1:00 PM)100% (Jan 11, 1:00 AM)30.38 "Hg (Jan 11, 1:00 AM)
Low26 °F (Jan 19, 9:00 AM)35% (Jan 13, 2:00 AM)29.72 "Hg (Jan 16, 4:00 PM)
Average33 °F86%30.03 "Hg
* Reported Jan 10 3:00 AM — Jan 25 3:00 AM, Aalen, Weather by CustomWeather, © 2014

Note: Actual official high and low records may vary slightly from our data, if they occured in-between our weather recording intervals... More about our weather records

Advertising

Aalen weather history for previous 24 hours

 ConditionsComfort  
Time TempWeatherWind HumidityBarometerVisibility
3:00 AM
Jan 25
27 °FLight snow. Low clouds.6 mph99%30.32 "Hg0 mi
2:00 AM27 °FSnow. Low clouds.6 mph98%30.30 "Hg0 mi
1:00 AM27 °FSnow. Low clouds.7 mph98%30.28 "Hg0 mi
12:00 AM26 °FLight snow. Low clouds.8 mph98%30.27 "Hg0 mi
11:00 PM
Jan 24
26 °FLight snow. Low clouds.7 mph98%30.27 "Hg0 mi
10:00 PM26 °FLight snow. Low clouds.7 mph97%30.26 "Hg0 mi
9:00 PM26 °FLight snow. Ice fog.7 mph98%30.25 "Hg0 mi
8:00 PM27 °FLow clouds.6 mph96%30.23 "Hg7 mi
7:00 PM28 °FSnow flurries. Low clouds.3 mph97%30.21 "Hg7 mi
6:00 PM28 °FSnow flurries. Low clouds.3 mph97%30.19 "Hg8 mi
5:00 PM28 °FLow clouds.3 mph96%30.17 "Hg8 mi
4:00 PM28 °FLow clouds.5 mph96%30.16 "Hg7 mi
3:00 PM28 °FLow clouds.6 mph95%30.14 "Hg5 mi
2:00 PM28 °FFog.6 mph96%30.15 "Hg3 mi
1:00 PM28 °FFog.6 mph97%30.16 "Hg3 mi
12:00 PM28 °FFog.6 mph98%30.18 "Hg1 mi
11:00 AM28 °FFog.5 mph97%30.20 "Hg1 mi
10:00 AM27 °FFog.5 mph98%30.22 "Hg0 mi
9:00 AM27 °FFog.5 mph99%30.22 "Hg0 mi
8:00 AM27 °FFog.5 mph98%30.23 "Hg0 mi
7:00 AM27 °FFog.3 mph98%30.23 "Hg0 mi
6:00 AM27 °FFog.3 mph99%30.24 "Hg0 mi
5:00 AM27 °FLow clouds.2 mph99%30.24 "Hg0 mi
Weather by CustomWeather, © 2014

See weather overviewHow to use our weather pages